Miscellaneous Local Product
Issued by NWS Hastings, NE

Home | Current Version | Previous Version | Text Only | Print | Product List | Glossary On
Versions: 1 2 3 4 5 6 7 8 9 10 11 12 13 14 15 16 17 18 19 20 21 22 23 24 25 26 27 28 29 30 31 32 33 34 35 36 37 38 39 40 41 42 43 44 45 46 47 48 49 50
000
AXUS43 KGID 221202
MISGRI

GID CWA HOURLY WEATHER ROUNDUP
NATIONAL WEATHER SERVICE HASTINGS NE
700 AM CDT TUE MAY 22 2018

NOTE: "FAIR" INDICATES FEW OR NO CLOUDS BELOW 12,000 FEET WITH NO
SIGNIFICANT WEATHER AND/OR OBSTRUCTIONS TO VISIBILITY.

...SOUTH CENTRAL NEBRASKA...

CITY           SKY/WX    TMP DP  RH WIND       PRES   REMARKS
GRAND ISLAND   CLEAR     63  58  83 S16G24    29.94F
KEARNEY        CLOUDY    62  59  90 S10       29.94R
HASTINGS       CLOUDY    63  59  87 S12       29.95S
ORD            CLEAR     56  56 100 CALM      29.92S
YORK           CLOUDY    64  64 100 S13       29.96F
AURORA         CLOUDY    64  60  87 S15       29.94F
LEXINGTON      PTCLDY    61  59  92 S8        29.93R
HOLDREGE       CLOUDY    62  60  93 S13       29.93S
HEBRON         PTCLDY    65  61  86 S9        29.98S

...NEBRASKA PANHANDLE...

CITY           SKY/WX    TMP DP  RH WIND       PRES   REMARKS
CHADRON        PTCLDY    49  48  97 CALM      29.94R
ALLIANCE       CLEAR     47  46  97 N6        29.95F
SCOTTSBLUFF    CLEAR     50  50 100 N6        29.96F
SIDNEY         FOG       52  52 100 N5        29.96S VSB<1/4

...WESTERN AND NORTH CENTRAL NEBRASKA...

CITY           SKY/WX    TMP DP  RH WIND       PRES   REMARKS
VALENTINE      CLEAR     56  55  97 NE3       29.95R FOG
AINSWORTH      CLEAR     56  56 100 CALM      29.95R FOG
ONEILL         PTCLDY    64  58  82 SE8       29.96R
BROKEN BOW     PTCLDY    57  56  96 CALM      29.92S
IMPERIAL       MOCLDY    54  50  86 SW6       29.95R
NORTH PLATTE   FOG       54  54 100 CALM      29.93R VSB 1/2
MCCOOK         MOCLDY    57  56  96 SW3       29.94R

...EASTERN NEBRASKA...

CITY           SKY/WX    TMP DP  RH WIND       PRES   REMARKS
NORFOLK        TSTM      61  58  90 NE8       29.98R
SO SIOUX CITY  CLOUDY    59  57  93 SE3       30.00R
TEKAMAH        MOCLDY    59  58  96 CALM      30.00R FOG
COLUMBUS       CLOUDY    65  60  84 MISG      29.97R
ALBION         PTCLDY    61  59  92 SE5       29.94F
OMAHA EPPLEY   MOCLDY    63  58  83 SE5       30.00R
OFFUTT AFB     CLOUDY    61  60  98 CALM      29.99R
MILLARD        CLOUDY    63  58  86 E3        30.00R
LINCOLN        MOCLDY    63  61  93 S7        29.99R
NEBRASKA CITY  CLOUDY    61  61 100 CALM      30.02R
BEATRICE       PTCLDY    66  62  87 S13       30.00S
FALLS CITY     PTCLDY    64  59  83 S6        30.01R

...NORTHERN KANSAS...

CITY           SKY/WX    TMP DP  RH WIND       PRES   REMARKS
GOODLAND       CLOUDY    57  48  72 S9        29.97R
HILL CITY      CLOUDY    64  60  87 S10       29.96S
NORTON         SUNNY     61  57  88 S8        29.93F
PHILLIPSBURG   CLEAR     63  63 100 SE3       29.96S
SMITH CENTER     N/A     63  57  82 SE9       29.97S
HAYS           CLEAR     62  59  90 S7        29.98S
RUSSELL        CLEAR     64  63  96 S13       29.97S
CONCORDIA      CLOUDY    65  61  87 S10       30.00R
SALINA         CLEAR     66  63  90 S8        30.00S
TOPEKA         CLOUDY    60  60 100 SE3       30.04R



USA.gov is the U.S. government's official web portal to all federal, state and local government web resources and services.